Home   Weather   Marchtrenk   Past weeks

Flag for Austria Past Weather in Marchtrenk, Upper Austria, Austria — Yesterday and Last 2 Weeks

Now
19 °F

Light freezing rain. Overcast.


Feels Like: 13 °F
Forecast: 7 / 22 °F
Wind: 5 mph from Northeast

Location: Linz / Hoersching-Flughafen

Current Time: Jan 20, 2017 at 7:28:09 pm

Latest Report: Jan 20, 2017 at 6:50 pm


Visibility: 3 mi

Pressure: 30.48 "Hg

Humidity: 86%

Dew Point: 16 °F

Location of MarchtrenkLocation

Past Weather in Marchtrenk — Graph

°F

Marchtrenk Temperature Yesterday

Maximum temperature yesterday: 25 °F (at 2:50 pm)
Minimum temperature yesterday: 14 °F (at 7:50 am)
Average temperature yesterday: 19 °F

High & Low Weather Summary for the Past Weeks

 TemperatureHumidityPressure
High39 °F (Jan 12, 11:50 am)100% (Jan 12, 6:50 pm)30.66 "Hg (Jan 12, 6:50 pm)
Low3 °F (Jan 7, 6:50 am)52% (Jan 13, 12:50 pm)29.39 "Hg (Jan 13, 3:50 am)
Average24 °F81%30.21 "Hg
* Reported Jan 5 6:20 pm — Jan 20 6:20 pm, Marchtrenk, Weather by CustomWeather, © 2017

Note: Actual official high and low records may vary slightly from our data, if they occured in-between our weather recording intervals... More about our weather records

Advertising

Marchtrenk Weather History for the Previous 24 Hours

Scroll right to see more
 ConditionsComfort  
Time TempWeatherWind HumidityBarometerVisibility
6:20 pm
Fri, Jan 20
19 °FHaze.6 mph86%30.48 "Hg4 mi
5:50 pm21 °FClear.8 mph80%30.48 "Hg4 mi
5:20 pm21 °FClear.8 mph80%30.48 "Hg4 mi
4:50 pm21 °FClear.6 mph80%30.48 "Hg4 mi
4:20 pm23 °FSunny.8 mph74%30.48 "Hg4 mi
3:50 pm25 °FSunny.7 mph69%30.48 "Hg4 mi
3:20 pm25 °FSunny.7 mph69%30.48 "Hg4 mi
2:50 pm25 °FSunny.9 mph69%30.48 "Hg4 mi
2:20 pm25 °FSunny.9 mph69%30.48 "Hg4 mi
1:50 pm25 °FSunny.7 mph63%30.48 "Hg4 mi
1:20 pm23 °FSunny.7 mph68%30.48 "Hg4 mi
12:50 pm23 °FSunny.9 mph68%30.51 "Hg4 mi
12:20 pm23 °FSunny.8 mph68%30.51 "Hg4 mi
11:50 am21 °FSunny.9 mph74%30.51 "Hg4 mi
11:20 am21 °FSunny.10 mph68%30.54 "Hg4 mi
10:50 am19 °FSunny.10 mph73%30.54 "Hg4 mi
10:20 am18 °FSunny.12 mph79%30.54 "Hg4 mi
9:50 am18 °FSunny.12 mph79%30.54 "Hg4 mi
9:20 am16 °FSunny.10 mph79%30.54 "Hg4 mi
8:50 am16 °FLight freezing rain. Sunny.10 mph79%30.54 "Hg3 mi
8:20 am16 °FLight freezing rain. Sunny.13 mph79%30.54 "Hg3 mi
7:50 am16 °FLight freezing rain. Sunny.13 mph79%30.51 "Hg3 mi
7:20 am16 °FClear.9 mph79%30.51 "Hg4 mi
6:50 am14 °FClear.10 mph85%30.51 "Hg4 mi
6:20 am16 °FPassing clouds.12 mph79%30.51 "Hg4 mi
5:50 am16 °FPassing clouds.12 mph79%30.51 "Hg4 mi
5:20 am16 °FClear.12 mph79%30.51 "Hg4 mi
4:50 am16 °FCold.12 mph86%30.54 "Hg4 mi
4:20 am18 °FCold.13 mph79%30.54 "Hg4 mi
3:50 am16 °FCold.13 mph79%30.54 "Hg4 mi
3:20 am18 °FCold.13 mph79%30.54 "Hg4 mi
2:50 am18 °FCold.13 mph79%30.54 "Hg4 mi
2:20 am18 °FCold.13 mph79%30.54 "Hg4 mi
1:50 am18 °FPassing clouds.13 mph79%30.54 "Hg4 mi
1:20 am18 °FPassing clouds.12 mph79%30.54 "Hg4 mi
12:50 am18 °FPassing clouds.12 mph79%30.54 "Hg4 mi
12:20 am18 °FCold.10 mph79%30.57 "Hg4 mi
11:50 pm
Thu, Jan 19
18 °FCold.10 mph79%30.57 "Hg4 mi
11:20 pm19 °FPassing clouds.12 mph79%30.54 "Hg4 mi
10:50 pm18 °FCold.7 mph79%30.57 "Hg4 mi
10:20 pm18 °FCold.9 mph86%30.57 "Hg4 mi
9:50 pm18 °FCold.9 mph86%30.57 "Hg4 mi
9:20 pm19 °FPassing clouds.10 mph79%30.57 "Hg4 mi
8:50 pm19 °FCold.12 mph79%30.54 "Hg4 mi
8:20 pm19 °FCold.12 mph79%30.54 "Hg4 mi
7:50 pm19 °FCold.10 mph79%30.54 "Hg4 mi
7:20 pm19 °FCold.10 mph79%30.54 "Hg4 mi
Weather by CustomWeather, © 2017

See weather overviewHow to use our weather pages